Regional Weather Roundup
Issued by NWS

Home | Current Version | Previous Version | Text Only | Print | Product List | Glossary Off
Versions: 1 2 3 4 5 6 7 8 9 10 11 12 13 14 15 16 17 18 19 20 21 22 23 24 25 26 27 28 29 30 31 32 33 34 35 36 37 38 39 40 41 42 43 44 45 46 47 48 49 50

000
ASUS43 KLSX 062159
RWRMO

WEATHER SUMMARY FOR MISSOURI
NATIONAL WEATHER SERVICE SPRINGFIELD MO
500 PM CDT WED MAY 06 2015

NOTE: "FAIR" INDICATES FEW OR NO CLOUDS BELOW 12,000 FEET WITH NO
       SIGNIFICANT WEATHER AND/OR OBSTRUCTIONS TO VISIBILITY.
       CURRENT SKY AND/OR WEATHER CONDITIONS ARE NOT AVAILABLE FOR
       CHILLICOTHE AND FARMINGTON.

MOZ001>031-035>038-043-044-053-054-062300-
...NORTHERN AND WESTERN MISSOURI...

CITY           SKY/WX    TMP DP  RH WIND       PRES   REMARKS
KANSAS CTY INT CLOUDY    66  61  84 SE14      29.90F
KANSAS C DTWN  CLOUDY    69  62  78 E7        29.90F
LEE`S SUMMIT   MOSUNNY   71  64  78 SE12      29.92F
ST JOSEPH      CLOUDY    70  58  65 S29G35    29.88F
CHILLICOTHE      N/A     74  60  61 S10G23    29.95F
KIRKSVILLE     PTSUNNY   73  60  63 S15       29.99F

$$
MOZ066>068-077>081-088>096-101>105-062300-
...SOUTHWEST MISSOURI...

CITY           SKY/WX    TMP DP  RH WIND       PRES   REMARKS
SPRINGFIELD    SUNNY     77  54  44 SE20G31   29.98F
JOPLIN         PTSUNNY   78  56  46 S20G30    29.92S

$$
MOZ032>034-039>042-045>050-055>058-069>072-062300-
...CENTRAL MISSOURI...

CITY           SKY/WX    TMP DP  RH WIND       PRES   REMARKS
COLUMBIA       PTSUNNY   78  59  51 S8        29.98F
JEFFERSON CITY CLOUDY    80  54  40 S12       29.97F
ROLLA          MOSUNNY   78  54  43 S15       30.00F
SEDALIA        PTSUNNY   78  59  51 S22G28    29.96F
OSAGE BEACH    PTSUNNY   81  55  41 S12       29.98F

$$
MOZ051-052-059>065-062300-
...EAST CENTRAL MISSOURI...

CITY           SKY/WX    TMP DP  RH WIND       PRES   REMARKS
ST LOUIS INTL  MOSUNNY   86  53  32 S10G24    30.02F
SPIRIT OF STL  MOSUNNY   83  51  33 SE12G23   30.00F
ST CHARLES     MOSUNNY   85  52  32 SE16      30.00F

$$
MOZ072>076-082>087-097>100-106>115-062300-
...SOUTH CENTRAL AND SOUTHEAST MISSOURI...

CITY           SKY/WX    TMP DP  RH WIND       PRES   REMARKS
CAPE GIRARDEAU SUNNY     83  55  38 S12       30.05F
FARMINGTON     SUNNY     82  54  36 S12       30.09F
POPLAR BLUFF   MOSUNNY   83  52  34 SE12      30.03F
WEST PLAINS    PTSUNNY   79  52  38 SE10G20   30.04F

$$



USA.gov is the U.S. government's official web portal to all federal, state and local government web resources and services.